OneWeb SL0156

operational
NORAD ID: 48052 Int'l Des: 2021-025 Owner: ONEWEBN Country: UK Constellation: oneweb
LEOCIRCULARPOLARONEWEB_TYPE

About OneWeb SL0156

Description loading...

Live Position

Loading 3D Globe...

Upcoming Passes

Altitude History

Altitude vs Time

uPlot chart will show altitude changes over time

Two-Line Element Set

1 48052U 21025L 26035.11207038 -.00000280 00000-0 -80235-3 0 9990
2 48052 87.9036 346.6607 0001927 83.3133 276.8215 13.13469146236107
Epoch: Feb 4, 2026 • Age: 6 hours

Current Status

Altitude 1220.9 km
Velocity 7.25 km/s
Sub-Earth Point 71.50°N, 105.04°W
Launch Date Mar 25, 2021
Age 4.8 years
Type internet

Technical Details

Classification Payload
Mass 148.00 kg
Dry Mass 140.00 kg
Total Mass 148.00 kg
Length 1.30 m
Diameter 1.00 m
Span 5.00 m
Shape Trapezoid+2 pan
Manufacturer ONEWUS
Bus Type ARROW
Phase Status In Orbit
Owner/State ONEWEBN/UK

Large Constellations

Loading constellations...